DELTA 1 DEB, 42653

Orbit data source: Space-Track

DELTA 1 DEB, 42653 is space debris in SSO originally from a launch on Thu, 12 Jun 1975 UTC launched from the Air Force Western Test Range (AFWTR). Debris objects in space refer to the collection of defunct objects orbiting the Earth. Examples of debris include non-operational satellites, rocket bodies, and fragments generated from explosions, collisions, or faulty payload assembly.

Loading next visibility...
Identifier
42653, 1975-052MN
Orbit
SSO
Country
Flag of USUS
Related business
Manufacturer
Unknown
Mission
Spacecraft
Bus & Motor
Unknown
Mass
Unknown
Launch date (UTC)
1975-06-12 (50 years ago)
Launch vehicle
Unknown
Launch site
Air Force Western Test Range (AFWTR)
Object type
Payload
Rocket body
Debris
Shape & HBR
Unknown shape, 0.1 m
Radar Cross Section
Small (<0.1 m²)

Expand to show TLE details & history
Last TLE update: 2 days ago

TLE from 2 days ago
0 DELTA 1 DEB
1 42653U 75052MN  25286.69756576  .00000014  00000-0  11717-3 0  9998
2 42653  99.7492  79.2832 0068110 224.6316 154.5939 13.30806913577710
Epoch: 2025-10-13T16:44Z
TLE epoch observation values (Epoch: 2025-10-13T16:44:29.681Z)
Latitude
19.264°
Longitude
162.23776°
Altitude
1,192.369 km
Speed
7.237 km/s
True Right ascension
05h 03m 25s
True Declination
19° 09' 48"
Sunlit
Object was in full shadow at epoch
Visualization orbit readout
Latitude
Unknown
Longitude
Unknown
Altitude
Unknown
Speed
Unknown
Apparent Right ascension
Unknown
Apparent Declination
Unknown
Sunlit
N/A
Visualization observer readout
Local Sidereal Time
07:25:47
Azimuth
Unknown
Elevation
Unknown
Doppler factor
Unknown
Orbital elements
Apogee altitude
1,192.264 km
Perigee altitude
1,089.837 km
Semi-major axis
7,519.188 km
Eccentricity
0.00681
Inclination
99.7492°
RAAN
79.2832°
Arg. of periapsis
224.6316°
True anomaly
154.92619°
Mean anomaly
154.5939°
Eccentric anomaly
154.7603°
Mean motion
3.32879 °/min
Orbital period
108.15 mins
BSTAR
0.00011717
Loading maneuver chart data...
Computing Atmospheric mass density...

Documentation

Showing up to 5 results
|